Location: Limoges
(45.8354°N, 1.2645°E)
Time: 20:05:58
(UTC+02:00)

Courier 1B Rocket - Pass Details

Date: 25 February 2024
Orbit: 920 x 1201 km, 28.2° (Epoch: 20 April)

Event Time Altitude Azimuth Distance (km) Brightness Sun altitude
Rises 05:37:31 0° 236° (SW) 3,551 - -22.4°
Reaches altitude 10° 05:41:18 10° 214° (SW) 2,602 - -21.7°
Exits shadow 05:42:56 14° 199° (SSW) 2,356 6.7 -21.4°
Maximum altitude 05:44:40 15° 181° (S) 2,264 6.8 -21.1°
Drops below altitude 10° 05:48:03 10° 148° (SSE) 2,627 7.5 -20.6°
Sets 05:51:54 0° 126° (SE) 3,604 8.7 -19.9°
